| time (UTC) | temp F | wind direction | speed MPH | gust MPH | rain 1hr in | rain 24hr in | rain mn in | humidity % | barometer mb |
| 20260902062242 | 78 | 0 | 0.0 | 0.0 | 0.00 | 0.00 | 0.00 | 38 | 1002.8 |
| 20260902052320 | 77 | 0 | 0.0 | 0.0 | 0.00 | 0.00 | 0.00 | 37 | 1002.8 |
| 20260902042359 | 76 | 0 | 0.0 | 0.0 | 0.00 | 0.00 | 0.00 | 36 | 1002.4 |
| 20260902032458 | 76 | 0 | 0.0 | 0.0 | 0.00 | 0.00 | 0.00 | 39 | 1001.9 |
| 20260902022542 | 77 | 0 | 0.0 | 0.0 | 0.00 | 0.00 | 0.00 | 37 | 1001.7 |
| 20260902012627 | 77 | 0 | 0.0 | 0.0 | 0.00 | 0.00 | 0.00 | 37 | 1001.6 |
| 20260902002705 | 78 | 0 | 0.0 | 0.0 | 0.00 | 0.00 | 0.00 | 36 | 1001.5 |
| 20260901232752 | 79 | 0 | 0.0 | 0.0 | 0.00 | 0.00 | 0.00 | 33 | 1001.4 |
| 20260901222842 | 80 | 0 | 0.0 | 0.0 | 0.00 | 0.00 | 0.00 | 32 | 1001.5 |
| 20260901212925 | 80 | 0 | 0.0 | 0.0 | 0.00 | 0.00 | 0.00 | 31 | 1001.4 |
| 20260901203016 | 81 | 0 | 0.0 | 0.0 | 0.00 | 0.00 | 0.00 | 29 | 1001.4 |
| 20260901193103 | 81 | 0 | 0.0 | 0.0 | 0.00 | 0.00 | 0.00 | 30 | 1001.2 |
| 20260901183146 | 82 | 0 | 0.0 | 0.0 | 0.00 | 0.00 | 0.00 | 31 | 1001.1 |
| 20260901173231 | 84 | 0 | 0.0 | 0.0 | 0.00 | 0.00 | 0.00 | 28 | 1000.2 |
| 20260901163316 | 87 | 0 | 0.0 | 0.0 | 0.00 | 0.00 | 0.00 | 29 | 999.3 |
| 20260901153409 | 91 | 0 | 0.0 | 0.0 | 0.00 | 0.00 | 0.00 | 27 | 998.6 |
| 20260901143458 | 94 | 0 | 0.0 | 0.0 | 0.00 | 0.00 | 0.00 | 26 | 998.2 |
| 20260901133603 | 97 | 0 | 0.0 | 0.0 | 0.00 | 0.00 | 0.00 | 23 | 998.5 |
| 20260901123701 | 96 | 0 | 0.0 | 0.0 | 0.00 | 0.00 | 0.00 | 27 | 998.9 |
| 20260901113733 | 92 | 0 | 0.0 | 0.0 | 0.00 | 0.00 | 0.00 | 28 | 999.8 |
| 20260901103802 | 89 | 0 | 0.0 | 0.0 | 0.00 | 0.00 | 0.00 | 35 | 1000.5 |
| 20260901093835 | 86 | 0 | 0.0 | 0.0 | 0.00 | 0.00 | 0.00 | 41 | 1001.0 |
| 20260901083909 | 83 | 0 | 0.0 | 0.0 | 0.00 | 0.00 | 0.00 | 46 | 1001.3 |
| 20260901073939 | 78 | 0 | 0.0 | 0.0 | 0.00 | 0.00 | 0.00 | 53 | 1001.8 |